#timestamp,LO_Frequency,Hit,StdDev 
1588755615.5,286046999.7,N
1588755635.3,286047002.4,N
1588755655.1,286046998.6,N
1588755675.9,286047001.0,N
1588755695.7,286047000.8,N
1588755715.6,286047002.6,N
1588755735.4,286046999.7,N
1588755755.2,286047000.2,N
1588755775.1,286047000.1,N
1588755776.0,286047000.1,N
1588755795.8,286047001.2,N
1588755815.6,286046999.0,N
1588755835.5,286047001.0,N
1588755855.3,286047002.4,N
1588755875.2,286047004.1,Y
1588755895.9,286047001.7,P
1588755915.7,286047002.7,P
1588755935.6,286047002.3,N
1588755955.4,286047000.3,N
1588755975.3,286047000.8,N
1588755995.1,286047001.0,N
1588755996.0,286047001.0,N
1588756015.8,286046999.7,N
1588756035.7,286047004.0,Y
1588756055.5,286047000.7,P
1588756075.3,286046999.2,P
1588756095.2,286047000.7,N
1588756115.0,286047000.9,N
1588756115.9,286047000.9,N
1588756135.8,286047000.6,N
1588756155.6,286046998.7,N
1588756175.4,286046999.6,N
1588756195.3,286047000.5,N
1588756215.1,286046998.3,N
1588756235.9,286047002.7,N
1588756255.7,286047002.5,N
1588756275.5,286047000.6,N
1588756295.4,286046999.4,N
1588756315.2,286046998.2,N
1588756335.0,286047002.7,N
1588756335.9,286047002.7,N
1588756355.8,286047000.6,N
1588756375.6,286047001.8,N
1588756395.5,286046999.8,N
1588756415.3,286047000.4,N
1588756435.1,286047002.0,N
1588756455.9,286047001.9,N
1588756475.7,286046998.3,N
1588756495.5,286046999.2,N
1588756515.4,286047000.0,N
1588756535.2,286047001.0,N
1588756555.1,286046998.2,N
1588756556.0,286046998.2,N
1588756575.8,286046996.6,N
1588756595.6,286047000.6,N
1588756615.5,286047000.1,N
1588756635.3,286047000.5,N
1588756655.2,286047002.5,N
1588756675.9,286047005.9,Y
1588756695.7,286047002.7,P
1588756715.6,286047002.3,N
1588756735.4,286047000.2,N
1588756755.2,286047002.7,N
1588756775.1,286047001.4,N
1588756776.0,286047001.4,N
1588756795.8,286047001.6,N
1588756815.7,286047001.9,N
1588756835.5,286047002.6,N
1588756855.3,286047003.9,Y
1588756875.2,286047000.8,P
1588756895.0,286046998.6,P
1588756895.9,286046998.6,N
1588756915.8,286047000.2,N
1588756935.6,286046996.9,N
1588756955.4,286046996.6,N
1588756975.3,286046998.3,N
1588756995.1,286046999.7,N
1588757015.9,286047000.9,N
1588757035.7,286047000.0,N
1588757055.5,286047002.5,N
1588757075.4,286047002.5,N
1588757095.2,286047002.7,N
1588757115.1,286047002.5,N
1588757116.0,286047002.5,N
1588757135.8,286047002.1,N
1588757155.6,286047002.6,N
1588757175.5,286046998.3,N
1588757195.3,286046999.3,N
1588757215.2,286046998.7,N
1588757235.9,286047000.4,N
1588757255.7,286046998.5,N
1588757275.6,286047000.4,N
1588757295.4,286046998.1,N
1588757315.3,286046999.8,N
1588757335.1,286047002.1,N
1588757355.8,286046999.7,N
1588757375.7,286046996.5,N
1588757395.5,286046998.8,N
1588757415.4,286047000.7,N
1588757435.2,286046998.6,N
1588757455.0,286046998.9,N
1588757455.9,286046998.9,N
1588757475.8,286046998.5,N
1588757495.6,286047000.1,N
1588757515.5,286047003.8,N
1588757535.3,286047006.0,Y
1588757555.1,286046999.8,P
1588757575.9,286047002.8,P
1588757595.7,286047002.4,N
1588757615.6,286047005.3,Y
1588757635.4,286047001.4,P
1588757655.2,286047004.2,P
1588757675.1,286047004.0,N
1588757676.0,286047004.0,N
1588757695.8,286047005.7,Y
1588757715.7,286047002.5,P
1588757735.5,286046998.4,P
1588757755.3,286046997.7,N
1588757775.2,286046995.8,N
1588757795.0,286046996.1,N
1588757795.9,286046996.1,N
1588757815.8,286046996.0,N
1588757835.6,286046994.8,N
1588757855.4,286046991.7,N
1588757875.3,286046993.3,N
1588757895.1,286046993.9,N
1588757915.8,286046991.9,N
1588757935.7,286046993.0,N
1588757955.5,286046994.4,N
1588757975.4,286046993.4,N
1588757995.2,286046997.2,N
1588758015.0,286046995.3,N
1588758015.9,286046995.3,N
1588758035.8,286046995.6,N
1588758055.6,286046996.4,N
1588758075.4,286046991.7,N
1588758095.3,286046991.1,Y
1588758115.1,286046996.4,P
1588758135.9,286046994.4,P
1588758155.7,286046992.8,P
1588758175.5,286046993.8,Y
1588758195.4,286047002.8,P
1588758215.2,286047000.5,N
1588758235.1,286047002.0,N
1588758236.0,286047002.0,N
1588758255.8,286047002.2,N
1588758275.6,286047002.4,N
1588758295.5,286047000.6,N
1588758315.3,286047000.6,N
1588758335.1,286047000.6,N
1588758355.9,286046999.9,N
1588758375.7,286047000.1,N
1588758395.6,286047002.3,N
1588758415.4,286047001.5,N
1588758435.2,286047001.9,N
1588758455.1,286047003.8,N
1588758456.0,286047003.8,N
1588758475.8,286047003.1,N
1588758495.7,286047002.9,N
1588758515.5,286047001.6,N
1588758535.3,286047002.0,N
1588758555.2,286047001.9,N
1588758575.0,286046998.6,N
1588758575.9,286046998.6,N
1588758595.8,286046998.2,N
1588758615.6,286046996.5,N
1588758635.4,286046998.2,N
1588758655.3,286046998.3,N
1588758675.1,286046999.3,N
1588758695.8,286046998.2,N
1588758715.7,286046995.0,N
1588758735.7,286046996.2,N
1588758755.5,286046996.0,N
1588758775.3,286046997.1,N
1588758795.2,286046999.4,N
1588758815.0,286046995.5,N
1588758815.9,286046995.5,N
1588758835.8,286046997.1,N
1588758855.6,286047002.8,N
1588758875.4,286047001.1,N
1588758895.3,286046998.2,N
1588758915.1,286046998.1,N
1588758935.9,286047001.0,N
1588758955.7,286047000.5,N
1588758975.5,286046998.9,N
1588758995.4,286046998.1,N
1588759015.2,286047001.4,N
1588759035.1,286047004.3,N
1588759036.0,286047004.3,N
1588759055.8,286047001.5,N
1588759075.6,286047001.1,N
1588759095.5,286046998.4,N
1588759115.3,286046996.5,N
1588759135.2,286046996.6,N
1588759155.9,286046998.3,N
1588759175.7,286046998.7,N
1588759195.6,286046999.0,N
